Location: Boughton Malherbe
(51.2000°N, 0.7000°E)
Time: 13:10:00
(UTC+00:00)

Daily predictions for brighter satellites

Satellite Brightness Start Highest point End
(mag) Time Altitude Azimuth Time Altitude Azimuth Time Altitude Azimuth
SL-8 R/B 3.9 19:18:51 10° WSW 19:23:38 63° S 19:28:25 10° E
Cosmos 2322 4.3 19:18:17 10° NNW 19:23:41 41° NE 19:29:00 10° ESE
Ariane Rocket 3.3 19:19:02 10° SE 19:23:54 50° ENE 19:28:48 10° N
Cosmos 1441 Rocket 3.3 19:20:03 10° NNW 19:24:00 84° ENE 19:27:57 10° SSE
SAR-Lupe-4 3.6 19:22:25 10° NNE 19:26:03 88° ESE 19:29:38 10° SSW
Cosmos 2082 Rocket 3.8 19:21:11 10° WSW 19:26:32 41° NW 19:31:53 10° NNE
ATLAS 2AS CENTAUR R/B 3.8 19:20:44 10° SSE 19:27:09 28° ESE 19:33:31 10° ENE
Cosmos 2228 3.5 19:23:05 10° SSE 19:27:10 40° E 19:31:14 10° NNE
Cosmos 1184 Rocket 2.8 19:25:40 10° NNW 19:28:53 82° WSW 19:32:04 10° S
Cosmos 1953 Rocket 4.1 19:24:51 10° N 19:29:01 39° ENE 19:33:07 10° SE
Cosmos 2034 Rocket 4.2 19:25:36 10° SSE 19:31:33 52° E 19:37:36 10° NNE
Meteor 2-10 Rocket 4.1 19:34:58 10° SSE 19:39:42 37° E 19:44:37 10° NNE
Nadezhda 4 Rocket 4.0 19:34:17 10° N 19:40:40 76° E 19:46:57 10° SSE
Cosmos 1464 Rocket 4.0 19:35:44 10° S 19:42:03 82° E 19:48:19 10° NNE
Resurs 1-3 3.8 19:38:31 10° SSE 19:42:49 57° ENE 19:47:09 10° N
OBJECT-B 0.8 19:39:50 10° SSE 19:43:03 87° W 19:46:18 10° NNW
SL-16 R/B 4.4 19:41:58 10° N 19:44:58 14° NNE 19:47:57 10° NE
Cosmos 1825 3.3 19:43:04 10° N 19:46:19 26° ENE 19:49:06 12° SE
COSMOS 2428 3.3 19:42:46 10° NNW 19:48:17 44° NE 19:53:17 12° ESE
Cosmos 1825 Rocket 3.5 19:44:30 10° N 19:48:54 88° E 19:53:17 10° S
Cosmos 1300 3.0 19:47:50 10° SSW 19:51:38 72° WNW 19:55:27 10° N
IRS-1A Rocket 4.3 19:46:15 10° SSE 19:51:48 86° ENE 19:57:30 10° NNW
Lacrosse 5 rocket 1.3 19:50:09 10° SW 19:54:10 68° SE 19:58:26 10° ENE
MOS 1 4.3 19:48:45 10° SSE 19:54:23 88° ENE 20:00:05 10° NNW
Cosmos 1758 Rocket 4.2 19:51:12 10° NNW 19:55:34 58° W 19:59:57 10° S
CZ-4C R/B 2.1 19:50:40 10° SSW 19:55:37 67° SE 20:01:40 10° NE
Cosmos 2333 4.3 19:52:11 10° NNW 19:58:00 75° ENE 20:03:23 12° SE
Cosmos 2026 Rocket 4.2 19:52:05 10° N 19:58:01 52° ENE 20:03:56 10° SSE
Cosmos 2360 Rocket 2.5 19:54:02 10° NNW 19:59:41 68° WSW 20:05:17 10° SSE
Cosmos 1833 4.3 19:54:37 10° S 20:00:02 52° ESE 20:05:32 10° NE
SJ-6B 3.7 20:02:40 10° S 20:06:15 46° W 20:09:53 10° NNW
CZ-2C R/B 4.2 20:03:45 10° N 20:08:30 38° WNW 20:13:15 10° SW
SL-16 R/B 4.0 20:05:57 10° NW 20:10:44 29° WSW 20:15:30 10° SSW
Cosmos 1634 Rocket 4.3 20:04:52 10° SSE 20:10:51 49° E 20:16:50 10° NNE
COSMOS 2487 3.2 20:08:05 11° SSE 20:10:52 30° ESE 20:13:53 10° NE
CENTAUR R/B 4.1 20:04:29 10° NW 20:12:07 46° WSW 20:20:23 10° S
USA 215 3.4 20:09:26 15° SE 20:15:04 71° SW 20:21:38 10° WNW
ATLAS 3B R/B 2.9 20:08:16 10° NW 20:15:11 67° NE 20:20:51 18° ESE
ARIANE 5 R/B 3.6 20:14:35 18° ESE 20:17:04 32° ENE 20:21:00 10° N
Cosmos 2058 3.1 20:13:26 10° N 20:17:36 54° ENE 20:20:27 19° SSE
Terra 3.5 20:15:13 14° E 20:17:37 19° ENE 20:20:55 10° NNE
ERS-1 Rocket 4.2 20:15:27 16° ESE 20:18:17 27° ENE 20:22:28 10° N
Cosmos 2219 Rocket 2.2 20:13:31 10° NNW 20:19:15 76° ENE 20:23:34 18° SE
Cosmos 1408 2.7 20:21:35 10° NNW 20:25:10 74° W 20:28:11 14° S
Cosmos 482 Debris 4.5 20:23:40 10° SW 20:25:00 21° SSW 20:25:00 21° SSW
SPOT 1/Viking Rocket 3.8 20:22:47 19° SE 20:26:25 54° ENE 20:31:31 10° N
Exosat Rocket 4.0 20:19:00 10° NNW 20:26:27 76° ENE 20:30:28 20° SE
Cosmos 405 Rocket 3.4 20:23:07 10° N 20:26:59 41° ENE 20:28:48 25° SE
Orbus 7S? 3.9 20:24:45 10° SSW 20:27:28 33° SE 20:32:13 10° ENE
Cosmos 1455 2.1 20:24:28 12° S 20:27:53 61° E 20:31:36 10° NNE
Cosmos 1356 4.2 20:25:29 10° N 20:28:40 35° ENE 20:29:41 28° ESE
BREEZE-M DEB (TANK) 4.2 20:26:10 10° SW 20:29:32 55° SSE 20:38:50 10° ENE
RESURS DK-1 3.4 20:30:11 24° ESE 20:30:11 24° ESE 20:33:29 10° NE
Cosmos 1606 Rocket 4.2 20:26:16 10° SSW 20:30:36 58° WNW 20:34:56 10° N
SPOT 3 Rocket 3.6 20:26:51 13° SSE 20:31:32 87° WSW 20:36:46 10° NNW
Cosmos 405 2.8 20:28:56 10° S 20:32:23 79° E 20:35:52 10° NNE
BREEZE M DEB (TANK) 3.5 20:25:30 10° SW 20:33:54 36° SSE 20:35:25 26° ESE
Spot 2 Rocket 3.8 20:31:08 22° SE 20:34:09 50° ENE 20:39:03 10° N
Cosmos 2251 Rocket 4.1 20:32:43 16° SSE 20:36:29 37° ESE 20:41:23 10° NE
Cosmos 2237 Rocket 2.9 20:34:24 10° NNW 20:39:47 42° NE 20:42:52 23° ESE
ATLAS 5 CENTAUR R/B 2.7 20:35:54 10° WSW 20:39:54 46° NW 20:44:31 10° NE
IGS 5A 3.5 20:37:33 19° S 20:40:31 79° WSW 20:44:41 10° NNW
Cosmos 389 Rocket 3.6 20:42:04 26° E 20:42:04 26° E 20:44:51 10° NE
Cosmos 1726 Rocket 4.2 20:38:25 10° SSW 20:42:44 55° WNW 20:47:03 10° N
USA 245 3.4 20:42:42 28° SSE 20:44:56 67° ENE 20:48:36 10° N
CZ-2C R/B 3.6 20:44:17 10° NNE 20:48:45 64° ESE 20:51:48 19° S
Landsat 7 3.9 20:46:03 19° S 20:49:28 75° WSW 20:54:15 10° NNW
Cosmos 2333 Rocket 2.7 20:47:22 10° NW 20:53:01 58° WSW 20:56:57 20° S
Meteor 2-1 Rocket 4.2 20:50:04 10° S 20:55:51 78° E 21:01:47 10° NNE
Resurs 01 Rocket 2.5 20:54:28 14° S 20:58:05 46° W 21:02:24 10° NNW
Cosmos 2058 Rocket 3.5 20:53:50 10° SSW 20:58:09 62° WNW 21:02:29 10° N
Cosmos 2227 Rocket 3.9 21:00:02 16° E 21:00:02 16° E 21:02:18 10° ENE
SeaSat 1 4.5 20:57:05 10° ENE 20:58:00 13° ENE 20:58:00 13° ENE
NOSS 3-4 (A) 3.5 20:57:42 10° SW 21:03:34 77° NW 21:10:01 10° NE
NOSS 3-4 (C) 3.5 20:57:45 10° SW 21:03:40 77° NW 21:10:08 10° NE
SL-8 R/B 3.9 21:01:13 10° W 21:05:56 53° SSW 21:07:14 40° SE
Cosmos 2297 Rocket 3.4 21:07:23 24° E 21:07:23 24° E 21:11:10 10° NE
Cosmos 192 4.3 21:03:47 10° NNW 21:08:47 71° ENE 21:10:31 40° SE
Cosmos-2242 3.7 21:14:50 36° E 21:14:50 36° E 21:18:42 10° NNE
Meteor 2-3 Rocket 3.9 21:11:38 10° N 21:17:25 61° ENE 21:19:28 38° SE
ATLAS 2AS CENTAUR R/B 3.0 21:09:28 10° SW 21:17:26 90° SE 21:25:13 10° NE
IRIDIUM 104 4.3 21:15:40 24° S 21:18:50 83° W 21:24:06 10° N
Cosmos 1818 3.7 21:17:27 31° S 21:19:42 50° ESE 21:24:59 10° NE
Cosmos 1812 Rocket 3.5 21:19:21 48° SSE 21:20:27 71° E 21:24:55 10° NNE
Cosmos 1825 3.9 21:18:29 10° NNW 21:21:47 29° W 21:23:54 17° SW
Cosmos 1633 2.3 21:21:35 10° N 21:25:13 85° E 21:25:18 83° ESE
SPOT 5 2.6 21:24:54 52° SSE 21:26:00 84° ENE 21:30:40 10° NNW
H-2A R/B 4.1 21:22:38 10° NNE 21:26:09 40° E 21:26:09 40° E
Cosmos 2344 3.4 21:21:02 10° SW 21:28:26 79° SE 21:36:33 10° NE
Cosmos 1766 Rocket 4.1 21:26:38 10° N 21:30:46 41° ENE 21:30:54 41° ENE
SL-16 R/B 3.0 21:25:25 10° NNW 21:30:47 40° NE 21:32:47 30° E
COSMOS 2428 3.6 21:27:12 10° NW 21:32:34 41° WSW 21:35:20 25° SSW
Genesis I 4.1 21:29:16 10° NNW 21:33:04 40° NE 21:33:36 38° ENE
Lacrosse 5 rocket 2.5 21:29:30 10° W 21:33:33 45° NNW 21:37:48 10° ENE
Cosmos 1980 3.6 21:28:27 10° NNW 21:34:11 87° WSW 21:35:57 46° SSE
Meteor 2-21 4.4 21:28:29 10° NNW 21:34:32 78° W 21:37:17 35° S
CARTOSAT-1 3.9 21:35:17 43° SSW 21:36:25 58° W 21:40:42 10° NNW
Cosmos 2279 Rocket 4.2 21:31:18 16° SSW 21:36:25 70° WNW 21:42:38 10° N
Cosmos 1076 Rocket 4.4 21:33:16 10° NNW 21:37:26 44° W 21:38:59 31° SW
NOSS 0 Rocket 4.2 21:33:51 10° NW 21:39:57 61° WSW 21:42:20 37° S
CZ-4C R/B 3.7 21:39:29 10° W 21:44:34 40° NNW 21:50:43 10° NE
Cosmos 2151 3.2 21:41:50 10° NNW 21:46:07 64° W 21:46:47 55° SW
Cosmos 909 Rocket 3.9 21:40:09 10° SW 21:46:28 84° SE 21:53:02 10° NE
Cosmos 407 Rocket 3.5 21:47:24 56° ESE 21:47:29 56° ESE 21:52:32 10° NNE
Cosmos 614 Rocket 3.9 21:45:13 34° SSW 21:47:30 86° WNW 21:52:39 10° NNE
Cosmos 1869 4.5 21:48:43 32° NE 21:48:43 32° NE 21:51:20 10° NNE
Timation 2 Rocket 4.4 21:47:57 41° ESE 21:48:11 42° ESE 21:54:07 10° NE
Cosmos 44 3.3 21:47:36 24° SW 21:50:46 84° SE 21:56:12 10° NE
ARIANE 5 R/B 3.9 21:52:07 28° SW 21:53:29 35° W 21:57:34 10° NNW
Terra 1.8 21:54:06 61° SSW 21:54:51 75° WSW 21:59:38 10° NNW
ERS-1 Rocket 3.4 21:55:26 41° SSW 21:56:49 53° W 22:01:45 10° NNW
BREEZE-M DEB (TANK) 3.3 21:49:16 10° W 21:58:48 65° SSW 21:58:54 65° S
Cosmos 2266 Rocket 4.2 21:53:05 10° NNW 21:59:28 69° W 22:01:54 39° SSW
Cosmos 2219 Rocket 4.1 21:58:22 10° NW 22:02:36 22° W 22:05:18 16° SW
ATLAS 3B R/B 3.6 21:59:15 10° NW 22:05:40 39° WSW 22:08:06 31° SSW
RESURS DK-1 3.3 22:05:55 25° WSW 22:07:56 46° NW 22:11:58 10° NNE
CRYOSAT 2 4.2 22:14:45 83° SSE 22:14:56 88° E 22:19:53 10° N
Cosmos 389 Rocket 4.4 22:15:50 23° W 22:16:27 25° WNW 22:19:27 10° N
Cosmos 1023 Rocket 4.3 22:18:10 82° S 22:18:25 88° ESE 22:23:33 10° NNE
Meteor 2-8 Rocket 4.3 22:20:56 58° S 22:22:16 89° E 22:28:27 10° N
Cosmos 1140 Rocket 3.3 22:22:47 80° SW 22:23:05 88° WNW 22:28:15 10° NNE
Spot 4 4.2 22:23:17 52° ENE 22:23:17 52° ENE 22:27:57 10° N
Cosmos 1862 4.3 22:19:58 10° N 22:22:50 42° NNE 22:22:50 42° NNE
Cosmos 2237 Rocket 2.8 22:18:35 10° NW 22:23:53 42° WSW 22:24:42 40° SW
ATLAS 5 CENTAUR R/B 4.2 22:22:11 10° WNW 22:25:41 21° N 22:29:38 10° NE
Cosmos 1244 Rocket 4.4 22:22:07 10° N 22:28:32 83° E 22:29:36 64° SSE
Cosmos 468 Rocket 3.9 22:30:58 10° NNW 22:36:03 73° ENE 22:36:03 73° ENE
Cosmos 2082 4.3 22:37:38 41° ENE 22:37:38 41° ENE 22:41:52 10° NE
Cosmos 1190 Rocket 3.9 22:36:43 75° WSW 22:37:03 79° WNW 22:42:19 10° NNE
SeaSat 1 2.4 22:33:11 10° NNE 22:37:46 75° NE 22:37:46 75° NE
Cosmos 1408 Rocket 4.0 22:34:02 10° NNW 22:37:36 59° NNW 22:37:36 59° NNW
SL-08 R/B 4.3 22:34:23 10° N 22:40:34 76° E 22:41:14 68° SE
Cosmos 2227 Rocket 2.0 22:41:47 82° S 22:42:03 87° ESE 22:47:46 10° NNE
Cosmos 1553 Rocket 3.9 22:45:00 63° ESE 22:45:11 63° E 22:51:13 10° NNE
Cosmos 2219 3.2 22:45:46 66° WSW 22:46:31 78° WNW 22:52:10 10° NNE
Cosmos 841 Rocket 4.1 22:41:48 10° NNW 22:46:52 46° ENE 22:47:03 46° ENE
COSMOS 2455 3.4 22:49:02 43° E 22:49:02 43° E 22:53:38 10° NE
Cosmos 2263 Rocket 4.0 22:49:57 18° ENE 22:49:57 18° ENE 22:52:11 10° NE
USA 229 DEB 4.3 22:42:50 10° NW 22:49:53 58° NE 22:53:15 33° E
USA 229 4.3 22:42:56 10° NW 22:49:59 58° NE 22:53:23 33° E
Cosmos 2297 Rocket 2.4 22:49:07 54° WSW 22:50:17 69° WNW 22:55:58 10° NNE
Cosmos 1743 Rocket 4.2 22:46:19 10° N 22:49:42 51° N 22:49:42 51° N
Cosmos 921 Rocket 4.2 22:47:52 10° N 22:51:31 36° NE 22:51:31 36° NE
Cosmos 676 Rocket 4.0 22:53:55 76° NNE 22:53:55 76° NNE 22:58:42 10° NNE
Cosmos 1417 Rocket 4.5 22:54:47 64° ESE 22:55:06 65° E 23:01:21 10° NNE
Meteor 2-15 Rocket 4.3 22:59:53 74° SW 23:00:28 83° W 23:06:35 10° N
Sich 1 4.3 22:57:28 10° N 23:00:28 35° NE 23:00:28 35° NE
Cosmos 1763 Rocket 3.6 22:57:29 10° NNW 23:02:01 67° WNW 23:02:01 67° WNW
Meteor 2-2 Rocket 4.1 23:02:38 84° SW 23:02:50 87° WNW 23:08:37 10° NNE
ALOS 2 3.3 23:04:12 50° NNE 23:04:12 50° NNE 23:07:36 10° N
Timation 1 Rocket 4.3 23:05:30 73° E 23:05:30 73° E 23:11:11 10° NE
NOSS 3-1 (A) 4.2 23:00:34 10° NW 23:07:40 64° NE 23:11:15 36° ESE
ATLAS 2AS CENTAUR R/B 4.1 23:01:54 10° W 23:09:17 41° NNW 23:16:25 10° NE
Cosmos 1500 Rocket 4.4 23:07:17 10° NNW 23:10:44 50° NW 23:10:44 50° NW
Lacrosse 5 rocket 2.7 23:09:18 10° WNW 23:13:23 40° N 23:13:54 38° NNE
SL-16 R/B 2.8 23:09:36 10° NW 23:14:39 46° W 23:14:39 46° W
Cosmos 2221 3.6 23:17:57 43° NNW 23:17:57 43° NNW 23:21:07 10° N
USA 281 3.4 23:22:55 51° ESE 23:24:20 62° NE 23:30:50 10° NNW
Thor Agena Rocket 4.4 23:21:03 10° NNE 23:24:51 39° ENE 23:24:51 39° ENE
Cosmos 1741 Rocket 4.4 23:31:07 58° NE 23:31:07 58° NE 23:35:29 10° NNE
Terra 4.3 23:32:59 11° W 23:33:26 11° W 23:34:49 10° WNW
Cosmos 540 Rocket 3.8 23:28:31 10° NNW 23:32:46 59° NW 23:32:46 59° NW
CZ-4C R/B 4.5 23:29:38 10° WNW 23:34:47 28° N 23:40:51 10° ENE
Cosmos 2208 Rocket 4.3 23:29:57 10° NNW 23:34:55 65° NE 23:34:55 65° NE
NOSS 3-1 (C) 3.9 23:28:57 10° NW 23:36:16 77° SW 23:37:38 64° SSE
Cosmos 1850 Rocket 4.3 23:39:06 64° NNE 23:39:06 64° NNE 23:43:32 10° NNE
Cosmos 1745 Rocket 4.2 23:37:59 10° NNW 23:44:11 57° W 23:44:29 56° WSW
Cosmos 1943 3.2 23:43:00 10° NNW 23:48:13 76° NW 23:48:13 76° NW
COBE Rocket 4.4 23:49:49 56° NNW 23:49:49 56° NNW 23:53:38 10° NNW
Cosmos 1709 Rocket 3.8 23:44:22 10° NNW 23:50:40 81° W 23:50:48 81° WSW
